Location: Altenst�hlen
(53.5567°N, 8.9425°E)
Time: 12:28:31
(UTC+00:00)

Cosmos 2016 Rocket - Pass Details

Date: 23 October 2019
Orbit: 948 x 1000 km, 83.0° (Epoch: 18 November)

Event Time Altitude Azimuth Distance (km) Brightness Sun altitude
Rises 18:51:28 0° 347° (NNW) 3,690 7.4 -24.4°
Reaches altitude 10° 18:54:00 10° 345° (NNW) 2,746 6.7 -24.8°
Maximum altitude 19:00:14 67° 265° (W) 1,073 4.3 -25.7°
Drops below altitude 10° 19:06:30 10° 185° (S) 2,757 6.2 -26.5°
Enters shadow 19:07:42 - 183° (S) 3,207 6.6 -26.7°
